Weather in Schellenberg

Liechtenstein     47°13′51″N   9°32′47″E
temp.,
°C
wind,
m/s
gust,
m/s
humid.,
%
clouds,
%
prec.,
mm/h
press.,
hPa
HPBL,
m
22 january, sat
sat2201:00−10s348713 0.0 103969
04:00−10s348221 0.0 103868
07:00−9ssw347978 0.0 103872
10:00−5s347481 0.0 1037123
13:000s117062 0.0 1035337
16:00−1ne118914 0.0 103426
19:00−6ssw22949 0.0 103819
22:00−6s34926 0.0 103857
23 january, sun
sun2301:00−7s34916 0.0 103751
04:00−7s229022 0.0 103741
07:00−7s22905 0.0 103738
10:00−3s12796 0.0 103591
13:00+1e01764 0.0 1033308
16:00−1nne129415 0.0 103372
19:00−5ssw229741 0.0 103520
22:00−5ssw239330 0.0 103546
24 january, mon
mon2401:00−6s32875 0.0 103541
04:00−6s33824 0.0 103444
07:00−6s22803 0.0 103439
10:00−1s12690 0.0 103268
13:00+2nne11701 0.0 1031162
16:000n11915 0.0 103212
19:00−4ssw22936 0.0 103515
22:00−4ssw22905 0.0 103627
25 january, tue
tue2501:00−4ssw22844 0.0 103631
04:00−5ssw22874 0.0 103720
07:00−5ssw22864 0.0 103828
10:000ssw12730 0.0 103675
13:00+2nne11764 0.0 1035204
16:00+1nne11935 0.0 103411
19:00−3ssw229737 0.0 103719
22:00−3ssw239443 0.0 103750
26 january, wed
wed2601:00−4ssw22875 0.0 103735
04:00−5ssw22865 0.0 103636
07:00−6ssw22885 0.0 103723
10:00−2s11735 0.0 103594
13:00+1nne11695 0.0 1033323
16:00−1nne229128 0.0 1033178
19:00−4ssw229744 0.0 103438
22:00−5s22957 0.0 103424